This is the latest recevied weather packets stored in our database for station/object KI8L. If no packets are shown the sender has not sent any weather packets the latest 10 day(s).
| Time | Temp. | Humidity | Pressure | Rain* | Wind** | Luminosity | Snow |
|---|---|---|---|---|---|---|---|
| 1778101989 | 12.22° C | 58% | 1014.2 hPa | 0 mm | - | 136 W/m² | - |
| 1778101687 | 12.22° C | 60% | 1014.4 hPa | 0 mm | - | 116 W/m² | - |
| 1778101383 | 12.22° C | 57% | 1014.4 hPa | 0 mm | - | 104 W/m² | - |
| 1778101081 | 12.78° C | 58% | 1014.2 hPa | 0 mm | - | 160 W/m² | - |
| 1778100776 | 12.78° C | 59% | 1014.4 hPa | 0 mm | - | 161 W/m² | - |
| 1778100473 | 12.22° C | 59% | 1014.1 hPa | 0 mm | - | 165 W/m² | - |
| 1778100170 | 12.22° C | 61% | 1014.4 hPa | 0 mm | - | 137 W/m² | - |
| 1778099868 | 12.22° C | 60% | 1014.3 hPa | 0 mm | - | 134 W/m² | - |
| 1778099565 | 12.78° C | 61% | 1014.3 hPa | 0 mm | - | 160 W/m² | - |
| 1778099262 | 12.22° C | 61% | 1014.5 hPa | 0 mm | - | 195 W/m² | - |
| 1778098959 | 12.22° C | 60% | 1014.7 hPa | 0 mm | - | 172 W/m² | - |
| 1778098656 | 12.22° C | 61% | 1014.4 hPa | 0 mm | - | 151 W/m² | - |
| 1778098352 | 12.22° C | 61% | 1014.5 hPa | 0 mm | - | 150 W/m² | - |
| 1778098050 | 12.22° C | 62% | 1014.4 hPa | 0 mm | - | 126 W/m² | - |
| 1778097746 | 12.78° C | 60% | 1014.3 hPa | 0 mm | - | 124 W/m² | - |
| 1778097442 | 12.78° C | 60% | 1014.2 hPa | 0 mm | - | 158 W/m² | - |
| 1778097139 | 12.78° C | 61% | 1014.4 hPa | 0 mm | - | 178 W/m² | - |
| 1778096836 | 12.22° C | 59% | 1014.4 hPa | 0 mm | - | 239 W/m² | - |
| 1778096532 | 12.22° C | 61% | 1014.6 hPa | 0 mm | - | 181 W/m² | - |
| 1778096231 | 12.78° C | 68% | 1014.5 hPa | 0 mm | - | 187 W/m² | - |
| 1778095927 | 12.22° C | 64% | 1014.5 hPa | 0 mm | - | 203 W/m² | - |
| 1778095624 | 12.22° C | 59% | 1014.5 hPa | 0 mm | - | 157 W/m² | - |
| 1778095321 | 12.22° C | 62% | 1014 hPa | 0 mm | - | 172 W/m² | - |
| 1778095018 | 12.22° C | 61% | 1014 hPa | 0 mm | - | 150 W/m² | - |
| 1778094713 | 12.22° C | 62% | 1014.1 hPa | 0 mm | - | 153 W/m² | - |
* Rain latest hour (hover to see other rain measurements)
** Current wind speed in m/s (hover to see current wind gust speed)